MTN8109 TJSJ-TAPA

Flight info

Callsign MTN8109
Flight time N/A
Altitude 23000
Route SJU RTE2 COY G633 ANU
Aircraft C208/L-SDF/C

Departure

Time N/A
Airport Luis Munoz Marin International Airport (TJSJ)

Arrival

Time 2026-04-27 05:41
Airport V. C. Bird International Airport (TAPA)
Time Latitude Longitude Altitude Speed Heading
2026-04-27 04:16 18.21144 -65.03079 15072 ft 146 kts 147°
2026-04-27 04:16 18.20297 -65.02489 15170 ft 146 kts 147°
2026-04-27 04:17 18.19449 -65.01901 15269 ft 146 kts 147°
2026-04-27 04:17 18.18601 -65.01313 15368 ft 146 kts 147°
2026-04-27 04:17 18.17755 -65.00725 15466 ft 146 kts 147°
2026-04-27 04:17 18.16898 -65.00131 15566 ft 146 kts 147°
2026-04-27 04:18 18.16054 -64.99544 15664 ft 145 kts 147°
2026-04-27 04:18 18.15220 -64.98966 15761 ft 145 kts 147°
2026-04-27 04:18 18.14377 -64.98380 15859 ft 145 kts 147°
2026-04-27 04:18 18.13524 -64.97788 15959 ft 145 kts 147°
2026-04-27 04:19 18.12693 -64.97213 16057 ft 145 kts 147°
2026-04-27 04:19 18.11852 -64.96628 16139 ft 146 kts 147°
2026-04-27 04:19 18.11000 -64.96038 16216 ft 147 kts 147°
2026-04-27 04:19 18.10144 -64.95445 16294 ft 148 kts 147°
2026-04-27 04:20 18.09282 -64.94846 16383 ft 149 kts 147°
2026-04-27 04:20 18.08417 -64.94248 16448 ft 150 kts 147°
2026-04-27 04:20 18.07541 -64.93640 16532 ft 151 kts 147°
2026-04-27 04:20 18.06657 -64.93028 16607 ft 153 kts 147°
2026-04-27 04:21 18.05765 -64.92410 16695 ft 154 kts 147°
2026-04-27 04:21 18.04866 -64.91788 16774 ft 155 kts 147°
2026-04-27 04:21 18.03962 -64.91161 16855 ft 156 kts 147°
2026-04-27 04:21 18.03051 -64.90530 16934 ft 157 kts 147°
2026-04-27 04:22 18.02137 -64.89897 17011 ft 158 kts 147°
2026-04-27 04:22 18.01219 -64.89260 17090 ft 158 kts 147°
2026-04-27 04:22 18.00297 -64.88623 17167 ft 159 kts 147°
2026-04-27 04:22 17.99374 -64.87984 17259 ft 158 kts 147°
2026-04-27 04:23 17.98464 -64.87352 17380 ft 156 kts 147°
2026-04-27 04:23 17.97566 -64.86731 17491 ft 154 kts 147°
2026-04-27 04:23 17.96677 -64.86115 17613 ft 152 kts 147°
2026-04-27 04:23 17.95796 -64.85505 17733 ft 151 kts 147°
2026-04-27 04:24 17.94925 -64.84902 17849 ft 149 kts 147°
2026-04-27 04:24 17.94060 -64.84304 17966 ft 148 kts 147°
2026-04-27 04:24 17.93204 -64.83711 18083 ft 147 kts 147°
2026-04-27 04:24 17.92353 -64.83122 18199 ft 146 kts 147°
2026-04-27 04:25 17.91495 -64.82529 18270 ft 149 kts 147°
2026-04-27 04:25 17.90626 -64.81928 18385 ft 149 kts 147°
2026-04-27 04:25 17.89763 -64.81332 18510 ft 148 kts 147°
2026-04-27 04:25 17.88904 -64.80737 18633 ft 148 kts 147°
2026-04-27 04:26 17.88048 -64.80146 18754 ft 147 kts 147°
2026-04-27 04:26 17.87197 -64.79557 18874 ft 146 kts 147°
2026-04-27 04:26 17.86349 -64.78971 18997 ft 146 kts 147°
2026-04-27 04:26 17.85506 -64.78388 19116 ft 145 kts 147°
2026-04-27 04:27 17.84666 -64.77807 19235 ft 144 kts 147°
2026-04-27 04:27 17.83830 -64.77230 19356 ft 143 kts 147°
2026-04-27 04:27 17.83000 -64.76656 19475 ft 142 kts 147°
2026-04-27 04:27 17.82240 -64.76009 19587 ft 142 kts 120°
2026-04-27 04:28 17.81892 -64.75038 19658 ft 144 kts 109°
2026-04-27 04:28 17.81516 -64.74051 19720 ft 148 kts 113°
2026-04-27 04:28 17.81100 -64.73054 19785 ft 151 kts 114°
2026-04-27 04:28 17.80666 -64.72042 19851 ft 153 kts 114°
2026-04-27 04:29 17.80222 -64.71014 19916 ft 156 kts 114°
2026-04-27 04:29 17.79771 -64.69971 19979 ft 158 kts 114°
2026-04-27 04:29 17.79312 -64.68911 20040 ft 161 kts 114°
2026-04-27 04:29 17.78848 -64.67836 20101 ft 163 kts 114°
2026-04-27 04:30 17.78377 -64.66751 20159 ft 164 kts 114°
2026-04-27 04:30 17.77903 -64.65654 20217 ft 166 kts 114°
2026-04-27 04:30 17.77423 -64.64546 20274 ft 167 kts 114°
2026-04-27 04:30 17.76947 -64.63445 20329 ft 169 kts 114°
2026-04-27 04:31 17.76453 -64.62305 20379 ft 170 kts 114°
2026-04-27 04:31 17.75963 -64.61174 20440 ft 171 kts 114°
2026-04-27 04:31 17.75472 -64.60039 20493 ft 172 kts 114°
2026-04-27 04:31 17.74986 -64.58917 20547 ft 172 kts 114°
2026-04-27 04:32 17.74487 -64.57765 20600 ft 173 kts 114°
2026-04-27 04:32 17.73988 -64.56616 20649 ft 173 kts 114°
2026-04-27 04:32 17.73489 -64.55467 20702 ft 173 kts 114°
2026-04-27 04:32 17.72991 -64.54317 20753 ft 173 kts 114°
2026-04-27 04:33 17.72493 -64.53167 20796 ft 173 kts 114°
2026-04-27 04:33 17.71995 -64.52020 20852 ft 173 kts 114°
2026-04-27 04:33 17.71497 -64.50871 20901 ft 173 kts 114°
2026-04-27 04:33 17.70998 -64.49722 20950 ft 173 kts 114°
2026-04-27 04:34 17.70501 -64.48576 21000 ft 173 kts 114°
2026-04-27 04:34 17.70003 -64.47429 21049 ft 173 kts 114°
2026-04-27 04:34 17.69506 -64.46283 21098 ft 173 kts 114°
2026-04-27 04:34 17.69008 -64.45137 21142 ft 173 kts 114°
2026-04-27 04:35 17.68511 -64.43991 21196 ft 172 kts 114°
2026-04-27 04:35 17.68016 -64.42852 21243 ft 171 kts 114°
2026-04-27 04:35 17.67528 -64.41728 21282 ft 168 kts 114°
2026-04-27 04:35 17.67049 -64.40620 21322 ft 166 kts 114°
2026-04-27 04:36 17.66702 -64.39478 21365 ft 164 kts 101°
2026-04-27 04:36 17.66461 -64.38315 21407 ft 163 kts 103°
2026-04-27 04:36 17.66206 -64.37163 21451 ft 162 kts 103°
2026-04-27 04:36 17.65951 -64.36018 21494 ft 161 kts 103°
2026-04-27 04:37 17.65703 -64.34894 21538 ft 160 kts 103°
2026-04-27 04:37 17.65449 -64.33747 21583 ft 159 kts 103°
2026-04-27 04:37 17.65199 -64.32621 21628 ft 158 kts 103°
2026-04-27 04:37 17.64952 -64.31502 21673 ft 157 kts 103°
2026-04-27 04:38 17.64705 -64.30387 21720 ft 157 kts 103°
2026-04-27 04:38 17.64459 -64.29276 21764 ft 156 kts 103°
2026-04-27 04:38 17.64213 -64.28169 21811 ft 155 kts 103°
2026-04-27 04:38 17.63969 -64.27067 21853 ft 155 kts 103°
2026-04-27 04:39 17.63726 -64.25970 21903 ft 154 kts 103°
2026-04-27 04:39 17.63483 -64.24877 21949 ft 154 kts 103°
2026-04-27 04:39 17.63241 -64.23786 21995 ft 153 kts 103°
2026-04-27 04:39 17.63000 -64.22700 22042 ft 153 kts 103°
2026-04-27 04:40 17.62760 -64.21617 22088 ft 152 kts 103°
2026-04-27 04:40 17.62520 -64.20537 22135 ft 152 kts 103°
2026-04-27 04:40 17.62281 -64.19462 22181 ft 151 kts 103°
2026-04-27 04:40 17.62043 -64.18390 22228 ft 151 kts 103°
2026-04-27 04:41 17.61806 -64.17321 22274 ft 150 kts 103°
2026-04-27 04:41 17.61569 -64.16256 22321 ft 150 kts 103°
2026-04-27 04:41 17.61333 -64.15194 22367 ft 149 kts 103°
2026-04-27 04:41 17.61097 -64.14135 22414 ft 149 kts 103°
2026-04-27 04:42 17.60862 -64.13074 22461 ft 150 kts 103°
2026-04-27 04:42 17.60624 -64.12007 22517 ft 150 kts 103°
2026-04-27 04:42 17.60386 -64.10938 22569 ft 151 kts 103°
2026-04-27 04:42 17.60147 -64.09865 22621 ft 151 kts 103°
2026-04-27 04:43 17.59908 -64.08790 22678 ft 152 kts 103°
2026-04-27 04:43 17.59667 -64.07713 22724 ft 152 kts 103°
2026-04-27 04:43 17.59427 -64.06638 22771 ft 151 kts 103°
2026-04-27 04:43 17.59190 -64.05574 22815 ft 150 kts 103°
2026-04-27 04:44 17.58953 -64.04512 22862 ft 150 kts 103°
2026-04-27 04:44 17.58717 -64.03452 22909 ft 149 kts 103°
2026-04-27 04:44 17.58481 -64.02394 22957 ft 149 kts 103°
2026-04-27 04:44 17.58245 -64.01335 22997 ft 150 kts 103°
2026-04-27 04:45 17.58005 -64.00263 23002 ft 153 kts 103°
2026-04-27 04:45 17.57761 -63.99172 23012 ft 155 kts 103°
2026-04-27 04:45 17.57512 -63.98058 23011 ft 159 kts 103°
2026-04-27 04:45 17.57262 -63.96945 23008 ft 159 kts 103°
2026-04-27 04:46 17.57010 -63.95811 23014 ft 161 kts 103°
2026-04-27 04:46 17.56752 -63.94661 23009 ft 163 kts 103°
2026-04-27 04:46 17.56492 -63.93500 23011 ft 164 kts 103°
2026-04-27 04:46 17.56230 -63.92329 23013 ft 165 kts 103°
2026-04-27 04:47 17.55967 -63.91157 23010 ft 165 kts 103°
2026-04-27 04:47 17.55789 -63.90363 23009 ft 165 kts 103°
2026-04-27 04:47 17.55527 -63.89190 23011 ft 165 kts 103°
2026-04-27 04:47 17.55179 -63.87638 23012 ft 165 kts 103°
2026-04-27 04:48 17.55001 -63.86844 23010 ft 165 kts 103°
2026-04-27 04:48 17.54739 -63.85672 23010 ft 166 kts 103°
2026-04-27 04:48 17.54475 -63.84497 23011 ft 166 kts 103°
2026-04-27 04:48 17.54212 -63.83322 23011 ft 166 kts 103°
2026-04-27 04:49 17.53948 -63.82147 23009 ft 166 kts 103°
2026-04-27 04:49 17.53685 -63.80971 23010 ft 166 kts 103°
2026-04-27 04:49 17.53421 -63.79795 23010 ft 166 kts 103°
2026-04-27 04:49 17.53157 -63.78622 23010 ft 166 kts 103°
2026-04-27 04:50 17.52895 -63.77450 23010 ft 166 kts 103°
2026-04-27 04:50 17.52630 -63.76274 23010 ft 166 kts 103°
2026-04-27 04:50 17.52366 -63.75100 23009 ft 166 kts 103°
2026-04-27 04:50 17.52102 -63.73922 23012 ft 166 kts 103°
2026-04-27 04:51 17.51841 -63.72761 23011 ft 166 kts 103°
2026-04-27 04:51 17.51576 -63.71583 23011 ft 166 kts 103°
2026-04-27 04:51 17.51311 -63.70404 23011 ft 166 kts 103°
2026-04-27 04:51 17.51047 -63.69227 23012 ft 166 kts 103°
2026-04-27 04:52 17.50781 -63.68049 23011 ft 166 kts 103°
2026-04-27 04:52 17.50516 -63.66872 23012 ft 166 kts 103°
2026-04-27 04:52 17.50250 -63.65688 23008 ft 166 kts 103°
2026-04-27 04:52 17.49984 -63.64508 23008 ft 167 kts 103°
2026-04-27 04:53 17.49718 -63.63327 23005 ft 166 kts 103°
2026-04-27 04:53 17.49452 -63.62147 23006 ft 166 kts 103°
2026-04-27 04:53 17.49187 -63.60967 23007 ft 166 kts 103°
2026-04-27 04:53 17.48920 -63.59788 23007 ft 166 kts 103°
2026-04-27 04:54 17.48654 -63.58607 23006 ft 166 kts 103°
2026-04-27 04:54 17.48388 -63.57427 23006 ft 167 kts 103°
2026-04-27 04:54 17.48123 -63.56252 23000 ft 164 kts 103°
2026-04-27 04:54 17.47865 -63.55102 22995 ft 162 kts 103°
2026-04-27 04:55 17.47605 -63.53946 22997 ft 165 kts 103°
2026-04-27 04:55 17.47339 -63.52770 23005 ft 167 kts 103°
2026-04-27 04:55 17.47068 -63.51577 23010 ft 169 kts 103°
2026-04-27 04:55 17.46795 -63.50369 23009 ft 172 kts 103°
2026-04-27 04:56 17.46518 -63.49146 23012 ft 174 kts 103°
2026-04-27 04:56 17.46238 -63.47909 23009 ft 176 kts 103°
2026-04-27 04:56 17.45956 -63.46660 23013 ft 177 kts 103°
2026-04-27 04:56 17.45671 -63.45399 23008 ft 179 kts 103°
2026-04-27 04:57 17.45384 -63.44133 23008 ft 180 kts 103°
2026-04-27 04:57 17.45095 -63.42855 23011 ft 181 kts 103°
2026-04-27 04:57 17.44805 -63.41575 23010 ft 181 kts 103°
2026-04-27 04:57 17.44513 -63.40291 23010 ft 182 kts 103°
2026-04-27 04:58 17.44221 -63.39000 23008 ft 183 kts 103°
2026-04-27 04:58 17.43928 -63.37707 23011 ft 183 kts 103°
2026-04-27 04:58 17.43634 -63.36409 23010 ft 183 kts 103°
2026-04-27 04:58 17.43340 -63.35115 23010 ft 184 kts 103°
2026-04-27 04:59 17.43045 -63.33812 23012 ft 184 kts 103°
2026-04-27 04:59 17.42749 -63.32507 23010 ft 184 kts 103°
2026-04-27 04:59 17.42452 -63.31201 23012 ft 184 kts 103°
2026-04-27 04:59 17.42156 -63.29894 23011 ft 185 kts 103°
2026-04-27 05:00 17.41858 -63.28586 23012 ft 185 kts 103°
2026-04-27 05:00 17.41561 -63.27276 23012 ft 185 kts 103°
2026-04-27 05:00 17.41262 -63.25964 23011 ft 185 kts 103°
2026-04-27 05:00 17.40965 -63.24655 23009 ft 185 kts 103°
2026-04-27 05:01 17.40666 -63.23342 23012 ft 185 kts 103°
2026-04-27 05:01 17.40367 -63.22031 23012 ft 185 kts 103°
2026-04-27 05:01 17.40069 -63.20717 23011 ft 185 kts 103°
2026-04-27 05:01 17.39769 -63.19404 23010 ft 185 kts 103°
2026-04-27 05:02 17.39471 -63.18091 23012 ft 185 kts 103°
2026-04-27 05:02 17.39171 -63.16779 23012 ft 185 kts 103°
2026-04-27 05:02 17.38573 -63.14152 23010 ft 186 kts 103°
2026-04-27 05:03 17.38273 -63.12837 23012 ft 186 kts 103°
2026-04-27 05:03 17.37974 -63.11524 23012 ft 186 kts 103°
2026-04-27 05:03 17.37674 -63.10211 23012 ft 186 kts 103°
2026-04-27 05:03 17.37375 -63.08899 23011 ft 186 kts 103°
2026-04-27 05:04 17.37152 -63.07925 23011 ft 185 kts 103°
2026-04-27 05:04 17.36852 -63.06611 23011 ft 185 kts 103°
2026-04-27 05:04 17.36551 -63.05297 23009 ft 185 kts 103°
2026-04-27 05:04 17.36255 -63.04000 23002 ft 182 kts 103°
2026-04-27 05:05 17.35965 -63.02725 22993 ft 179 kts 103°
2026-04-27 05:05 17.35677 -63.01466 22991 ft 177 kts 103°
2026-04-27 05:05 17.35393 -63.00225 22994 ft 174 kts 103°
2026-04-27 05:05 17.35113 -62.98994 22992 ft 174 kts 103°
2026-04-27 05:06 17.34835 -62.97766 22993 ft 173 kts 103°
2026-04-27 05:06 17.34557 -62.96539 22993 ft 173 kts 103°
2026-04-27 05:06 17.34280 -62.95317 22995 ft 173 kts 103°
2026-04-27 05:06 17.34003 -62.94094 22992 ft 172 kts 103°
2026-04-27 05:07 17.33726 -62.92873 22995 ft 172 kts 103°
2026-04-27 05:07 17.33450 -62.91655 22993 ft 172 kts 103°
2026-04-27 05:07 17.33177 -62.90452 22992 ft 172 kts 103°
2026-04-27 05:07 17.32900 -62.89236 22994 ft 172 kts 103°
2026-04-27 05:08 17.32621 -62.88004 22993 ft 172 kts 103°
2026-04-27 05:08 17.32348 -62.86804 22992 ft 172 kts 103°
2026-04-27 05:08 17.32072 -62.85588 22992 ft 172 kts 103°
2026-04-27 05:08 17.31796 -62.84374 22994 ft 172 kts 103°
2026-04-27 05:09 17.31520 -62.83159 22994 ft 172 kts 103°
2026-04-27 05:09 17.31244 -62.81946 22993 ft 172 kts 103°
2026-04-27 05:09 17.30968 -62.80732 22994 ft 172 kts 103°
2026-04-27 05:09 17.30692 -62.79518 22993 ft 172 kts 103°
2026-04-27 05:10 17.30414 -62.78302 22993 ft 172 kts 103°
2026-04-27 05:10 17.30138 -62.77086 22993 ft 172 kts 103°
2026-04-27 05:10 17.29861 -62.75870 22993 ft 172 kts 103°
2026-04-27 05:10 17.29584 -62.74655 22993 ft 172 kts 103°
2026-04-27 05:11 17.29365 -62.73418 22915 ft 177 kts 99°
2026-04-27 05:11 17.29129 -62.72115 22712 ft 188 kts 101°
2026-04-27 05:11 17.28878 -62.70743 22488 ft 197 kts 100°
2026-04-27 05:11 17.28622 -62.69308 22242 ft 204 kts 100°
2026-04-27 05:12 17.28361 -62.67831 21993 ft 209 kts 100°
2026-04-27 05:12 17.28093 -62.66319 21738 ft 213 kts 100°
2026-04-27 05:12 17.27822 -62.64786 21478 ft 216 kts 100°
2026-04-27 05:12 17.27548 -62.63243 21211 ft 214 kts 100°
2026-04-27 05:13 17.27285 -62.61772 20924 ft 199 kts 100°
2026-04-27 05:13 17.27040 -62.60389 20620 ft 189 kts 100°
2026-04-27 05:13 17.26806 -62.59063 20319 ft 182 kts 100°
2026-04-27 05:13 17.26578 -62.57803 20004 ft 170 kts 101°
2026-04-27 05:14 17.26366 -62.56627 19684 ft 160 kts 100°
2026-04-27 05:14 17.26169 -62.55515 19365 ft 152 kts 101°
2026-04-27 05:14 17.25980 -62.54446 19054 ft 148 kts 100°
2026-04-27 05:14 17.25796 -62.53385 18768 ft 150 kts 100°
2026-04-27 05:15 17.25605 -62.52318 18487 ft 148 kts 101°
2026-04-27 05:15 17.25416 -62.51266 18204 ft 146 kts 101°
2026-04-27 05:15 17.25230 -62.50229 17921 ft 144 kts 100°
2026-04-27 05:15 17.25048 -62.49200 17638 ft 143 kts 101°
2026-04-27 05:16 17.24866 -62.48180 17358 ft 142 kts 100°
2026-04-27 05:16 17.24685 -62.47167 17079 ft 141 kts 101°
2026-04-27 05:16 17.24506 -62.46155 16804 ft 142 kts 100°
2026-04-27 05:16 17.24324 -62.45136 16539 ft 145 kts 100°
2026-04-27 05:17 17.24138 -62.44050 16310 ft 158 kts 100°
2026-04-27 05:17 17.23925 -62.42859 16100 ft 174 kts 100°
2026-04-27 05:17 17.23691 -62.41573 15885 ft 186 kts 101°
2026-04-27 05:17 17.23447 -62.40212 15657 ft 194 kts 100°
2026-04-27 05:18 17.23195 -62.38802 15417 ft 200 kts 100°
2026-04-27 05:18 17.22937 -62.37358 15164 ft 204 kts 100°
2026-04-27 05:18 17.22681 -62.35935 14888 ft 188 kts 101°
2026-04-27 05:18 17.22449 -62.34660 14584 ft 170 kts 101°
2026-04-27 05:19 17.22239 -62.33486 14283 ft 160 kts 100°
2026-04-27 05:19 17.22038 -62.32315 14028 ft 171 kts 100°
2026-04-27 05:19 17.21813 -62.31052 13796 ft 180 kts 101°
2026-04-27 05:19 17.21580 -62.29777 13559 ft 176 kts 101°
2026-04-27 05:20 17.21361 -62.28551 13311 ft 172 kts 100°
2026-04-27 05:20 17.21142 -62.27328 13058 ft 170 kts 100°
2026-04-27 05:20 17.20871 -62.26127 12801 ft 169 kts 111°
2026-04-27 05:20 17.20286 -62.25069 12545 ft 168 kts 130°
2026-04-27 05:21 17.19416 -62.24283 12436 ft 158 kts 150°
2026-04-27 05:21 17.18428 -62.23892 12408 ft 149 kts 170°
2026-04-27 05:21 17.17359 -62.23875 12134 ft 160 kts 189°
2026-04-27 05:21 17.16279 -62.24251 11875 ft 168 kts 208°
2026-04-27 05:22 17.15319 -62.24964 11617 ft 171 kts 214°
2026-04-27 05:22 17.14200 -62.25249 11345 ft 166 kts 171°
2026-04-27 05:22 17.13261 -62.24646 11061 ft 160 kts 124°
2026-04-27 05:22 17.12963 -62.23556 10783 ft 156 kts 92°
2026-04-27 05:23 17.13132 -62.22451 10502 ft 153 kts 81°
2026-04-27 05:23 17.13191 -62.21346 10225 ft 152 kts 90°
2026-04-27 05:23 17.13185 -62.20246 9948 ft 151 kts 90°
2026-04-27 05:23 17.13172 -62.19152 9672 ft 150 kts 90°
2026-04-27 05:24 17.13158 -62.18062 9396 ft 150 kts 90°
2026-04-27 05:24 17.13142 -62.16977 9121 ft 149 kts 90°
2026-04-27 05:24 17.13128 -62.15894 8846 ft 149 kts 91°
2026-04-27 05:24 17.13112 -62.14814 8571 ft 148 kts 90°
2026-04-27 05:25 17.13098 -62.13739 8284 ft 149 kts 90°
2026-04-27 05:25 17.13082 -62.12664 8062 ft 145 kts 90°
2026-04-27 05:25 17.13068 -62.11621 7855 ft 142 kts 91°
2026-04-27 05:25 17.13054 -62.10593 7648 ft 141 kts 90°
2026-04-27 05:26 17.13039 -62.09574 7443 ft 140 kts 90°
2026-04-27 05:26 17.13025 -62.08563 7238 ft 139 kts 91°
2026-04-27 05:26 17.13010 -62.07556 7035 ft 138 kts 90°
2026-04-27 05:26 17.12982 -62.06555 6833 ft 137 kts 91°
2026-04-27 05:27 17.12979 -62.05557 6632 ft 137 kts 90°
2026-04-27 05:27 17.12969 -62.04561 6429 ft 137 kts 90°
2026-04-27 05:27 17.12953 -62.03569 6230 ft 136 kts 90°
2026-04-27 05:27 17.12939 -62.02590 6033 ft 136 kts 91°
2026-04-27 05:28 17.12924 -62.01602 5833 ft 136 kts 90°
2026-04-27 05:28 17.12909 -62.00614 5633 ft 136 kts 91°
2026-04-27 05:28 17.12895 -61.99628 5420 ft 135 kts 90°
2026-04-27 05:28 17.12880 -61.98644 5233 ft 135 kts 90°
2026-04-27 05:29 17.12865 -61.97662 5034 ft 135 kts 91°
2026-04-27 05:29 17.12851 -61.96681 4834 ft 135 kts 90°
2026-04-27 05:29 17.12836 -61.95702 4635 ft 135 kts 91°
2026-04-27 05:29 17.12822 -61.94723 4437 ft 135 kts 91°
2026-04-27 05:30 17.12807 -61.93744 4235 ft 134 kts 90°
2026-04-27 05:30 17.12792 -61.92769 4036 ft 134 kts 91°
2026-04-27 05:30 17.12778 -61.91787 3840 ft 136 kts 90°
2026-04-27 05:30 17.12764 -61.90797 3642 ft 136 kts 90°
2026-04-27 05:31 17.12750 -61.89806 3448 ft 136 kts 90°
2026-04-27 05:31 17.12737 -61.88813 3251 ft 137 kts 90°
2026-04-27 05:31 17.12498 -61.87877 3037 ft 136 kts 131°
2026-04-27 05:31 17.11673 -61.87514 2828 ft 132 kts 187°
2026-04-27 05:32 17.10943 -61.88014 2625 ft 129 kts 241°
2026-04-27 05:32 17.10583 -61.88862 2484 ft 125 kts 246°
2026-04-27 05:32 17.10247 -61.89653 2471 ft 115 kts 246°
2026-04-27 05:32 17.09935 -61.90394 2472 ft 112 kts 246°
2026-04-27 05:33 17.09721 -61.90899 2475 ft 117 kts 246°
2026-04-27 05:33 17.09382 -61.91707 2495 ft 128 kts 246°
2026-04-27 05:33 17.08875 -61.92929 2494 ft 142 kts 246°
2026-04-27 05:33 17.08615 -61.93558 2490 ft 141 kts 246°
2026-04-27 05:34 17.08238 -61.94470 2489 ft 130 kts 247°
2026-04-27 05:34 17.08136 -61.95336 2481 ft 118 kts 293°
2026-04-27 05:34 17.08744 -61.95843 2492 ft 114 kts 337°
2026-04-27 05:34 17.09469 -61.96166 2490 ft 113 kts 335°
2026-04-27 05:35 17.10188 -61.96493 2496 ft 115 kts 335°
2026-04-27 05:35 17.10948 -61.96837 2513 ft 122 kts 335°
2026-04-27 05:35 17.11764 -61.97161 2507 ft 129 kts 351°
2026-04-27 05:35 17.12584 -61.96844 2512 ft 133 kts 49°
2026-04-27 05:36 17.12831 -61.95900 2403 ft 144 kts 96°
2026-04-27 05:36 17.12657 -61.94849 2292 ft 150 kts 103°
2026-04-27 05:36 17.12414 -61.93777 2158 ft 153 kts 103°
2026-04-27 05:36 17.12163 -61.92686 2027 ft 151 kts 104°
2026-04-27 05:37 17.11926 -61.91679 1857 ft 135 kts 104°
2026-04-27 05:37 17.11713 -61.90769 1671 ft 125 kts 104°
2026-04-27 05:37 17.11512 -61.89900 1496 ft 120 kts 104°
2026-04-27 05:37 17.11321 -61.89058 1498 ft 124 kts 103°
2026-04-27 05:38 17.11112 -61.88143 1512 ft 134 kts 103°
2026-04-27 05:38 17.10886 -61.87168 1511 ft 141 kts 103°
2026-04-27 05:38 17.10643 -61.86226 1499 ft 127 kts 104°
2026-04-27 05:38 17.10562 -61.85364 1480 ft 113 kts 85°
2026-04-27 05:39 17.10729 -61.84632 1423 ft 104 kts 71°
2026-04-27 05:39 17.11010 -61.83914 1196 ft 109 kts 68°
2026-04-27 05:39 17.11303 -61.83168 988 ft 111 kts 61°
2026-04-27 05:39 17.11714 -61.82488 804 ft 109 kts 54°
2026-04-27 05:40 17.12144 -61.81836 565 ft 108 kts 56°
2026-04-27 05:40 17.12530 -61.81182 369 ft 104 kts 59°
2026-04-27 05:40 17.12906 -61.80565 228 ft 95 kts 56°
2026-04-27 05:40 17.13229 -61.80011 82 ft 84 kts 57°
2026-04-27 05:41 17.13506 -61.79548 54 ft 63 kts 60°
2026-04-27 05:41 17.13631 -61.79319 50 ft 8 kts 50°
2026-04-27 05:41 17.13662 -61.79310 49 ft 6 kts 359°
2026-04-27 05:41 17.13727 -61.79339 49 ft 9 kts 332°
2026-04-27 05:42 17.13731 -61.79341 49 ft 0 kts 335°
2026-04-27 05:42 17.13738 -61.79344 49 ft 5 kts 334°
2026-04-27 05:42 17.13774 -61.79362 49 ft 0 kts 335°
2026-04-27 05:43 17.13775 -61.79363 49 ft 0 kts 335°
2026-04-27 05:43 17.13785 -61.79369 49 ft 6 kts 314°
2026-04-27 05:43 17.13791 -61.79389 49 ft 0 kts 265°
2026-04-27 05:46 17.13798 -61.79389 49 ft 4 kts 64°
2026-04-27 05:46 17.13811 -61.79322 48 ft 16 kts 82°
2026-04-27 05:46 17.13865 -61.79185 46 ft 25 kts 62°
2026-04-27 05:46 17.13967 -61.79122 44 ft 16 kts
2026-04-27 05:47 17.14013 -61.79099 44 ft 1 kts 45°
2026-04-27 05:47 17.14046 -61.79097 44 ft 5 kts 355°
2026-04-27 05:47 17.14066 -61.79098 44 ft 0 kts 355°
2026-04-27 05:47 17.14067 -61.79098 44 ft 1 kts 354°
2026-04-27 05:48 17.14074 -61.79099 44 ft 0 kts 355°